Simultaneous Nadir Overpasses (SNOs) Predictions

Prediction of SNOs between NOAA-19 and METOP-C Satellite Orbit:

Table of predicted SNOs for the next 14.0 days since TLE Epoch: 4/23/2022
Index Date (NOAA-19) Time (NOAA-19) Lat,Lon (NOAA-19) SZA (NOAA-19 ) Date (METOP-C) Time (METOP-C) Lat,Lon (METOP-C) SZA (METOP-C ) Distance(km) Time Diff (sec)
1 04/25/2022 14:18:56 80.81, -2.00 69.03 04/25/2022 14:20:04 80.82, -2.11 69.05 1.99 68
2 04/25/2022 15:10:01 -80.81, 165.21 110.99 04/25/2022 15:10:44 -80.81, 165.20 110.97 0.25 43
3 04/25/2022 16:00:56 80.81, -27.49 69.01 04/25/2022 16:01:26 80.81, -27.60 69.00 1.98 30
4 04/25/2022 16:52:01 -80.81, 139.71 111.01 04/25/2022 16:52:06 -80.81, 139.71 111.02 0.76 5
5 04/25/2022 17:42:56 80.81, -52.99 68.98 04/25/2022 17:42:48 80.80, -53.10 68.96 2.43 8
6 04/25/2022 18:34:00 -80.80, 114.57 111.01 04/25/2022 18:33:27 -80.82, 114.56 111.01 1.35 33
7 04/25/2022 19:24:55 80.80, -78.12 68.99 04/25/2022 19:24:09 80.81, -78.24 68.96 2.21 46
8 04/25/2022 20:16:00 -80.80, 89.07 111.03 04/25/2022 20:14:49 -80.81, 89.07 111.06 0.37 71
9 05/06/2022 18:54:51 80.82, -71.21 65.68 05/06/2022 18:56:05 80.81, -71.17 65.70 1.46 74
10 05/06/2022 19:45:54 -80.82, 96.15 114.32 05/06/2022 19:46:45 -80.82, 96.25 114.30 1.79 51
11 05/06/2022 20:36:50 80.82, -96.35 65.69 05/06/2022 20:37:26 80.82, -96.32 65.71 0.92 36
12 05/06/2022 21:27:53 -80.81, 71.01 114.32 05/06/2022 21:28:06 -80.83, 71.10 114.29 2.19 13
13 05/06/2022 22:18:50 80.82,-121.85 65.67 05/06/2022 22:18:48 80.81,-121.82 65.67 0.64 2
14 05/06/2022 23:09:53 -80.82, 45.50 114.34 05/06/2022 23:09:28 -80.82, 45.60 114.33 1.81 25
15 05/07/2022 00:00:50 80.82,-147.35 65.65 05/07/2022 00:00:10 80.81,-147.32 65.63 1.47 40



Historial Predications of SNOs between NOAA-19 and METOP-C
